SCP
0 0 0 0 0 0 0 0 0 0 0 0 0 0 0 0 0 0 0 0 0 0 0 0 0 1 1 1 1 1 1 1 1 1 1 1 1 1
0 0 0 0 0 0 0 0 0 0 0 0 0 0 0 0 0 0 0 0 0 0 0 0 0 0 1 1 1 0 0 0 0 1 1 1 1 1
0 0 0 0 0 0 0 0 0 0 0 0 0 0 0 0 0 0 0 1 0 0 0 0 0 0 0 0 0 0 0 0 0 0 1 1 1 1
0 0 0 0 0 0 0 0 0 0 0 0 0 0 0 0 0 0 0 1 1 0 0 0 0 0 0 0 0 0 0 0 0 0 0 1 1 1
0 0 0 0 0 0 0 0 0 0 0 0 0 0 0 0 0 0 0 0 0 0 0 0 0 0 0 0 0 0 0 0 0 0 0 0 0 1
0 0 0 0 0 0 0 0 0 0 0 0 0 0 0 0 0 0 0 0 0 0 0 0 0 0 0 0 0 0 0 0 0 0 0 0 0 0
0 0 0 0 0 0 0 0 0 0 0 0 0 0 0 0 0 0 0 0 0 0 0 0 0 0 0 0 0 0 0 0 0 0 0 0 0 0
0 0 0 0 0 0 0 0 0 0 0 0 0 0 0 0 0 0 0 0 0 0 0 0 0 0 0 0 0 0 0 0 0 0 0 0 0 0
0 0 0 0 0 0 0 0 0 0 0 0 0 0 0 0 0 0 0 0 0 0 0 0 0 0 0 0 0 0 0 0 0 0 0 0 0 0
0 0 0 0 0 0 0 0 0 0 0 0 0 0 0 0 0 0 0 0 0 0 0 0 0 0 0 0 0 0 0 1 0 0 0 0 0 0
0 0 0 0 0 0 0 0 0 0 0 0 0 0 0 0 0 0 0 0 0 0 0 0 0 0 0 0 0 0 0 0 0 0 0 0 0 0
0 0 0 0 0 0 0 0 0 0 0 0 0 0 0 0 0 0 0 0 0 0 0 0 0 0 0 0 0 0 0 0 0 0 0 0 0 0
0 0 0 0 0 0 0 0 0 0 0 0 0 0 0 0 0 0 0 0 0 0 0 0 0 0 0 0 0 0 0 0 0 0 0 0 0 0
0 0 0 0 0 0 0 0 0 0 0 0 0 0 0 0 0 0 0 0 0 0 0 0 0 0 0 0 0 0 0 0 0 0 0 0 0 0
0 0 0 0 0 0 0 0 0 0 0 0 0 0 0 0 0 0 0 0 0 0 0 0 0 0 0 0 0 0 0 0 0 0 0 0 0 0
0 0 0 0 0 0 0 0 0 0 0 0 0 0 0 0 0 0 0 0 0 0 0 0 0 0 0 0 0 0 0 0 0 0 0 0 0 0
0 0 0 0 0 0 0 0 0 0 0 0 0 0 0 0 0 0 0 0 0 0 0 0 0 0 0 0 0 0 0 0 0 0 0 0 0 0
0 0 0 0 0 0 0 0 0 0 0 0 0 0 0 0 0 0 0 0 0 0 0 0 0 0 0 0 0 0 0 0 0 0 0 0 0 0
0 0 0 0 0 0 0 0 0 0 0 0 0 0 0 0 0 0 0 0 0 0 0 0 0 0 0 0 0 0 0 0 0 0 0 0 0 0
0 0 0 0 0 0 0 0 0 0 0 0 0 0 0 0 0 0 0 0 0 0 0 0 0 0 0 0 0 0 0 0 0 0 0 0 0 0
0 0 0 0 0 0 0 0 0 0 0 0 0 0 0 0 0 0 0 0 0 0 0 0 0 0 0 0 0 0 0 0 0 0 0 0 0 0
0 0 0 0 0 0 0 0 0 0 0 0 0 0 0 0 0 0 0 0 0 0 0 0 0 0 0 0 0 0 0 0 0 0 0 0 0 0
0 0 0 0 0 0 0 0 0 0 0 0 0 0 0 0 0 0 0 0 0 0 0 0 0 0 0 0 0 0 0 0 0 0 0 0 0 0
Wind_Speed
1 1 0 1 1 0 1 2 3 1 1 2 1 2 2 1 1 1 1 1 1 0 1 2 3 4 4 5 5 6 6 6 7 9 10 10 11 11
0 1 1 1 1 1 0 0 1 2 1 1 1 2 2 2 2 1 1 1 1 1 1 1 2 3 4 5 4 5 5 5 6 7 8 9 10 10
1 0 1 0 0 1 1 1 1 1 2 1 1 1 1 2 2 2 1 0 0 0 0 1 1 2 3 3 4 4 5 5 5 6 7 8 9 10
1 1 1 0 0 0 0 0 0 1 2 1 1 2 2 1 1 1 1 1 1 1 1 1 1 2 3 4 4 4 4 5 5 6 6 7 9 9
2 2 2 1 1 1 1 0 0 1 1 1 0 1 1 1 1 2 2 2 2 2 1 1 1 2 3 4 4 5 5 5 5 5 6 6 6 7
2 2 2 3 3 2 1 1 1 1 1 1 0 1 1 1 1 1 2 2 2 2 2 2 2 2 2 2 3 4 4 5 5 5 5 5 6 7
3 3 3 4 5 4 3 2 2 2 1 1 0 0 1 1 0 0 0 1 2 1 2 2 2 1 2 2 2 2 3 4 4 4 4 5 5 6
4 3 4 4 5 6 6 5 5 4 3 2 1 2 2 1 1 1 1 1 1 1 1 2 1 1 2 1 2 3 3 2 3 3 3 4 4 5
5 4 3 3 4 2 3 4 4 5 6 4 3 3 3 3 2 1 1 1 1 2 1 2 2 2 2 2 3 2 1 1 1 2 3 3 4 4
5 5 5 4 4 4 3 2 2 2 4 3 4 4 3 3 3 2 2 1 1 1 0 1 2 2 2 2 4 3 3 2 2 2 2 3 4 4
5 5 5 5 8 7 5 4 2 2 2 4 5 3 2 3 4 2 2 1 0 1 0 0 1 2 2 2 2 4 4 4 4 3 3 3 3 4
4 4 8 8 9 8 6 5 5 4 2 2 1 1 1 1 2 3 3 2 1 1 1 0 1 1 2 2 2 2 3 4 5 5 5 4 4 2
4 4 5 9 9 9 8 6 7 5 3 3 2 1 1 1 1 1 2 2 2 1 1 1 0 0 1 2 2 2 2 2 2 3 5 6 5 3
6 5 5 8 8 8 6 7 8 6 3 3 2 1 1 1 1 1 2 2 1 1 0 1 1 1 1 1 2 2 2 2 2 2 3 4 4 5
5 8 8 8 7 5 6 8 6 4 4 3 3 2 1 1 1 1 2 2 2 2 2 1 0 1 1 1 1 2 2 2 3 3 3 3 3 3
5 6 8 7 5 4 4 3 3 4 4 4 3 2 2 2 2 1 1 1 2 2 3 3 2 1 0 1 1 2 2 2 3 4 4 3 3 2
7 4 3 3 3 3 2 2 3 3 3 3 3 3 3 2 2 1 2 2 2 1 2 3 3 2 1 0 0 1 1 2 2 4 4 4 3 3
9 5 6 6 6 6 5 4 3 4 4 4 4 4 4 3 3 2 2 2 2 1 1 2 2 2 2 2 2 1 1 2 3 4 3 3 5 4
7 7 7 7 7 6 6 5 5 4 4 4 5 4 4 4 3 3 2 2 2 1 1 1 2 1 1 2 3 3 1 3 4 4 3 3 5 6
6 7 8 8 7 7 7 5 5 5 4 5 5 4 4 4 4 3 3 2 2 1 1 1 1 1 1 1 2 2 3 3 3 4 5 4 5 6
8 7 7 7 7 7 7 6 6 6 6 5 5 5 5 4 4 4 3 3 2 2 1 0 2 3 1 0 1 3 3 4 4 4 5 5 5 5
9 9 8 8 8 8 7 7 7 6 7 5 5 5 5 5 5 5 4 3 2 2 1 1 2 1 1 0 2 4 5 5 6 8 7 6 4 5
10 9 8 9 8 8 8 9 9 7 7 7 6 6 6 5 4 4 4 3 3 2 1 0 1 1 1 1 2 3 6 6 5 5 5 8 10 11
Wind_Direction
12 25 29 350 14 26 144 156 146 126 343 325 340 338 347 15 23 66 48 13 9 299 256 236 232 219 212 214 221 227 232 232 228 227 231 233 235 234
335 37 32 357 14 26 72 122 147 151 169 277 304 314 333 18 35 44 20 13 353 328 290 269 256 239 225 220 224 227 227 229 233 233 233 235 238 239
327 18 336 9 30 19 53 81 109 138 152 283 315 324 2 20 11 12 24 62 315 292 249 264 259 253 234 225 225 228 231 233 237 241 241 239 240 241
267 261 280 277 40 10 64 102 141 154 151 169 348 358 5 352 10 17 357 16 355 322 301 271 270 259 244 236 231 232 234 236 237 240 247 247 245 244
233 230 245 199 227 236 216 197 183 108 123 146 27 359 355 352 24 18 8 359 347 0 9 357 313 277 251 240 238 237 236 236 237 238 242 246 250 252
229 224 223 212 217 212 209 207 160 110 102 113 109 2 347 342 46 26 4 4 347 353 7 358 350 325 290 260 246 243 242 239 237 238 241 246 251 253
240 236 234 230 223 209 195 188 163 145 133 138 183 357 324 3 19 342 357 338 335 352 344 338 336 325 314 300 281 267 253 245 241 244 248 251 254 258
235 246 248 245 243 232 218 196 182 174 176 173 191 199 228 222 199 172 155 41 325 335 358 319 336 314 312 296 289 290 275 254 247 253 256 259 263 269
224 232 241 229 221 213 222 207 206 208 192 175 187 211 210 206 179 178 184 184 235 292 7 315 331 314 311 331 338 342 355 347 294 276 270 270 271 269
220 219 223 235 221 199 188 188 211 229 213 195 197 213 215 200 185 177 174 179 284 304 168 279 318 308 319 335 359 28 39 40 21 342 317 308 299 288
226 219 216 224 232 205 181 189 208 243 223 196 196 199 198 191 170 140 140 132 321 322 27 217 301 309 314 328 359 24 31 26 19 4 348 333 313 302
225 225 222 220 224 200 185 185 198 214 177 150 128 70 65 105 164 167 168 165 179 258 296 204 294 342 330 323 347 3 13 10 6 1 355 344 334 319
213 218 222 219 213 203 191 193 204 187 163 156 139 110 78 70 78 132 159 167 171 210 241 175 197 347 288 310 326 349 8 357 352 348 350 348 344 337
208 210 210 203 199 195 192 197 191 167 144 141 137 139 133 123 79 88 111 114 123 157 212 146 173 186 207 278 294 323 342 359 359 346 344 344 343 338
203 198 192 188 183 185 187 184 174 159 152 155 168 177 174 157 110 83 65 78 75 61 49 48 134 192 192 227 275 311 327 341 360 355 345 342 339 339
188 182 173 169 159 154 156 166 166 168 167 167 165 153 129 117 100 98 98 82 78 27 19 32 35 95 187 246 252 306 324 324 340 345 339 331 331 333
156 139 143 150 161 158 149 145 148 152 156 150 146 144 139 127 107 91 103 91 96 54 355 356 5 29 51 311 332 334 345 342 331 333 336 328 324 332
154 166 178 181 182 181 176 171 168 169 165 156 153 153 151 145 130 104 97 108 113 90 24 349 354 14 28 32 23 341 356 340 333 335 333 321 315 325
171 181 184 186 186 181 179 177 179 176 163 158 157 156 150 143 134 128 120 112 112 102 43 11 22 58 31 324 339 29 8 332 329 328 325 313 303 310
189 186 188 186 182 180 179 177 169 160 158 159 156 154 152 145 142 142 140 139 137 124 79 35 33 46 183 253 291 324 354 336 331 321 314 305 292 292
194 191 187 182 180 178 175 172 167 166 164 160 158 157 154 146 146 148 146 143 136 139 152 255 278 307 265 339 302 304 311 320 315 305 308 312 313 315
190 190 187 182 178 174 170 167 164 163 162 160 160 158 155 152 154 155 155 153 157 162 176 259 326 357 56 261 285 294 303 310 312 313 305 290 293 304
190 186 181 178 175 169 167 167 167 167 166 162 159 158 155 152 153 153 154 152 149 153 157 236 349 7 313 272 283 295 303 310 314 317 308 303 295 287